Time,TemperatureF,DewpointF,PressureIn,WindDirection,WindDirectionDegrees,WindSpeedMPH,WindSpeedGustMPH,Humidity,HourlyPrecipIn,Conditions,Clouds,dailyrainin,SoftwareType,DateUTC
2013-08-29 00:03:00,80.6,77.1,30.00,ESE,103,2.3,2.3,89,0.00,CLR,,0.00,WeatherDisplay:10.37,2013-08-29 05:03:00,
2013-08-29 00:08:00,80.5,77.0,30.00,SE,134,5.8,5.8,89,0.00,CLR,,0.00,WeatherDisplay:10.37,2013-08-29 05:08:00,
2013-08-29 00:13:00,80.5,77.0,30.00,SE,132,3.5,3.5,89,0.00,CLR,,0.00,WeatherDisplay:10.37,2013-08-29 05:13:00,
2013-08-29 00:18:00,80.5,77.0,30.00,SE,140,5.8,5.8,89,0.00,CLR,,0.00,WeatherDisplay:10.37,2013-08-29 05:18:00,
2013-08-29 00:23:00,80.5,77.3,30.00,SE,140,2.3,2.3,90,0.00,CLR,,0.00,WeatherDisplay:10.37,2013-08-29 05:23:00,
2013-08-29 00:28:00,80.5,77.3,30.00,ESE,113,5.8,5.8,90,0.00,CLR,,0.00,WeatherDisplay:10.37,2013-08-29 05:28:00,
2013-08-29 00:33:00,80.4,77.2,30.00,SE,129,3.5,3.5,90,0.00,CLR,,0.00,WeatherDisplay:10.37,2013-08-29 05:33:00,
2013-08-29 00:38:00,80.4,77.2,30.00,ESE,115,2.3,2.3,90,0.00,CLR,,0.00,WeatherDisplay:10.37,2013-08-29 05:38:00,
2013-08-29 00:43:00,80.4,77.2,30.00,SE,144,5.8,5.8,90,0.00,CLR,,0.00,WeatherDisplay:10.37,2013-08-29 05:43:00,
2013-08-29 00:48:00,80.4,77.2,30.00,SE,140,5.8,5.8,90,0.00,CLR,,0.00,WeatherDisplay:10.37,2013-08-29 05:48:00,
2013-08-29 00:53:00,80.4,77.2,29.99,SE,138,4.6,4.6,90,0.00,CLR,,0.00,WeatherDisplay:10.37,2013-08-29 05:53:00,
2013-08-29 00:58:00,80.4,77.2,30.00,SE,139,3.5,3.5,90,0.00,CLR,,0.00,WeatherDisplay:10.37,2013-08-29 05:58:00,
2013-08-29 01:03:00,80.3,77.1,30.00,SSE,147,4.6,4.6,90,0.00,CLR,,0.00,WeatherDisplay:10.37,2013-08-29 06:03:00,
2013-08-29 01:08:00,80.3,77.1,30.00,SE,146,0.0,0.1,90,0.00,CLR,,0.00,WeatherDisplay:10.37,2013-08-29 06:08:00,
2013-08-29 01:13:00,80.2,77.0,30.00,SE,146,1.1,1.1,90,0.00,CLR,,0.00,WeatherDisplay:10.37,2013-08-29 06:13:00,
2013-08-29 01:18:00,80.1,76.9,30.00,SE,146,1.1,1.1,90,0.00,CLR,,0.00,WeatherDisplay:10.37,2013-08-29 06:18:00,
2013-08-29 01:23:00,79.9,76.7,30.00,SSE,148,2.3,2.3,90,0.00,CLR,,0.00,WeatherDisplay:10.37,2013-08-29 06:23:00,
2013-08-29 01:28:00,79.9,76.7,30.00,SSE,147,2.3,2.3,90,0.00,CLR,,0.00,WeatherDisplay:10.37,2013-08-29 06:28:00,
2013-08-29 01:33:00,79.9,77.0,30.00,SSE,147,2.3,2.3,91,0.00,CLR,,0.00,WeatherDisplay:10.37,2013-08-29 06:33:00,
2013-08-29 01:38:00,79.9,77.0,30.00,SSE,147,2.3,2.3,91,0.00,CLR,,0.00,WeatherDisplay:10.37,2013-08-29 06:38:00,
2013-08-29 01:43:00,79.8,76.9,30.00,SE,146,3.5,3.5,91,0.00,CLR,,0.00,WeatherDisplay:10.37,2013-08-29 06:43:00,
2013-08-29 01:48:00,79.8,76.9,29.99,SE,145,4.6,4.6,91,0.00,CLR,,0.00,WeatherDisplay:10.37,2013-08-29 06:48:00,
2013-08-29 01:53:00,79.9,77.0,30.00,SE,146,3.5,3.5,91,0.00,CLR,,0.00,WeatherDisplay:10.37,2013-08-29 06:53:00,
2013-08-29 01:58:00,79.9,76.7,30.00,SE,146,2.3,2.3,90,0.00,CLR,,0.00,WeatherDisplay:10.37,2013-08-29 06:58:00,
2013-08-29 02:03:00,79.9,76.7,30.00,SE,146,4.6,4.6,90,0.00,CLR,,0.00,WeatherDisplay:10.37,2013-08-29 07:03:00,
2013-08-29 02:08:00,79.9,76.7,30.00,SE,146,2.3,2.3,90,0.00,CLR,,0.00,WeatherDisplay:10.37,2013-08-29 07:08:00,
2013-08-29 02:13:00,79.8,76.6,30.00,SE,145,2.3,2.3,90,0.00,CLR,,0.00,WeatherDisplay:10.37,2013-08-29 07:13:00,
2013-08-29 02:18:00,79.8,76.6,30.00,SE,145,2.3,2.3,90,0.00,CLR,,0.00,WeatherDisplay:10.37,2013-08-29 07:18:00,
2013-08-29 02:23:00,79.8,76.9,30.00,SE,142,4.6,4.6,91,0.00,CLR,,0.00,WeatherDisplay:10.37,2013-08-29 07:23:00,
2013-08-29 02:28:00,79.8,76.9,30.00,SE,142,1.1,1.1,91,0.00,CLR,,0.00,WeatherDisplay:10.37,2013-08-29 07:28:00,
2013-08-29 02:33:00,79.7,76.8,30.00,SE,142,0.0,0.2,91,0.00,CLR,,0.00,WeatherDisplay:10.37,2013-08-29 07:33:00,
2013-08-29 02:38:00,79.6,76.7,30.00,SE,142,2.3,2.3,91,0.00,CLR,,0.00,WeatherDisplay:10.37,2013-08-29 07:38:00,
2013-08-29 02:43:00,79.6,76.7,30.00,SE,142,1.1,1.1,91,0.00,CLR,,0.00,WeatherDisplay:10.37,2013-08-29 07:43:00,
2013-08-29 02:48:00,79.5,76.6,30.00,SE,142,1.1,1.1,91,0.00,CLR,,0.00,WeatherDisplay:10.37,2013-08-29 07:48:00,
2013-08-29 02:53:00,79.4,76.5,30.00,SE,142,1.1,0.0,91,0.00,CLR,,0.00,WeatherDisplay:10.37,2013-08-29 07:53:00,
2013-08-29 02:58:00,79.3,76.4,30.00,SE,142,0.0,0.0,91,0.00,CLR,,0.00,WeatherDisplay:10.37,2013-08-29 07:58:00,
2013-08-29 03:03:00,79.2,76.3,30.00,SE,142,0.0,0.0,91,0.00,CLR,,0.00,WeatherDisplay:10.37,2013-08-29 08:03:00,
2013-08-29 03:08:00,79.1,76.2,30.00,SE,142,0.0,0.0,91,0.00,CLR,,0.00,WeatherDisplay:10.37,2013-08-29 08:08:00,
2013-08-29 03:13:00,79.0,76.5,30.00,SE,142,1.1,1.1,92,0.00,CLR,,0.00,WeatherDisplay:10.37,2013-08-29 08:13:00,
2013-08-29 03:18:00,78.9,76.4,30.00,SE,142,0.0,0.0,92,0.00,CLR,,0.00,WeatherDisplay:10.37,2013-08-29 08:18:00,
2013-08-29 03:23:00,78.8,76.3,30.00,SE,142,1.1,0.0,92,0.00,CLR,,0.00,WeatherDisplay:10.37,2013-08-29 08:23:00,
2013-08-29 03:28:00,78.8,76.3,30.00,SE,142,2.3,2.3,92,0.00,CLR,,0.00,WeatherDisplay:10.37,2013-08-29 08:28:00,
2013-08-29 03:33:00,78.7,76.2,30.00,SE,142,0.0,0.0,92,0.00,CLR,,0.00,WeatherDisplay:10.37,2013-08-29 08:33:00,
2013-08-29 03:38:00,78.6,76.1,30.00,SE,142,0.0,0.0,92,0.00,CLR,,0.00,WeatherDisplay:10.37,2013-08-29 08:38:00,
2013-08-29 03:43:00,78.6,76.1,30.00,SE,142,0.0,0.0,92,0.00,CLR,,0.00,WeatherDisplay:10.37,2013-08-29 08:43:00,
2013-08-29 03:48:00,78.5,76.3,30.00,SE,142,0.0,0.0,93,0.00,CLR,,0.00,WeatherDisplay:10.37,2013-08-29 08:48:00,
2013-08-29 03:53:00,78.4,76.2,30.00,SE,142,0.0,0.0,93,0.00,CLR,,0.00,WeatherDisplay:10.37,2013-08-29 08:53:00,
2013-08-29 03:58:00,78.4,76.2,29.99,SE,142,0.0,0.0,93,0.00,CLR,,0.00,WeatherDisplay:10.37,2013-08-29 08:58:00,
2013-08-29 04:03:00,78.3,76.1,30.00,SE,142,0.0,0.0,93,0.00,CLR,,0.00,WeatherDisplay:10.37,2013-08-29 09:03:00,
2013-08-29 04:08:00,78.3,76.1,30.00,SE,142,0.0,0.0,93,0.00,CLR,,0.00,WeatherDisplay:10.37,2013-08-29 09:08:00,
2013-08-29 04:13:00,78.3,76.1,30.00,SE,142,0.0,0.0,93,0.00,CLR,,0.00,WeatherDisplay:10.37,2013-08-29 09:13:00,
2013-08-29 04:18:00,78.1,75.9,30.00,SE,142,0.0,0.0,93,0.00,CLR,,0.00,WeatherDisplay:10.37,2013-08-29 09:18:00,
2013-08-29 04:23:00,78.0,76.1,30.00,SE,142,0.0,0.0,94,0.00,CLR,,0.00,WeatherDisplay:10.37,2013-08-29 09:23:00,
2013-08-29 04:28:00,77.9,76.0,30.00,SE,142,0.0,0.0,94,0.00,CLR,,0.00,WeatherDisplay:10.37,2013-08-29 09:28:00,
2013-08-29 04:33:00,77.8,75.9,30.00,SE,142,0.0,0.0,94,0.00,CLR,,0.00,WeatherDisplay:10.37,2013-08-29 09:33:00,
2013-08-29 04:38:00,77.7,75.8,30.00,SE,142,0.0,0.0,94,0.00,CLR,,0.00,WeatherDisplay:10.37,2013-08-29 09:38:00,
2013-08-29 04:43:00,77.6,75.7,30.00,SE,142,0.0,0.0,94,0.00,CLR,,0.00,WeatherDisplay:10.37,2013-08-29 09:43:00,
2013-08-29 04:48:00,77.5,75.6,30.00,SE,142,0.0,0.0,94,0.00,CLR,,0.00,WeatherDisplay:10.37,2013-08-29 09:48:00,
2013-08-29 04:53:00,77.4,75.5,30.00,SE,142,0.0,0.0,94,0.00,CLR,,0.00,WeatherDisplay:10.37,2013-08-29 09:53:00,
2013-08-29 04:58:00,77.3,75.8,30.00,SE,142,0.0,0.0,95,0.00,CLR,,0.00,WeatherDisplay:10.37,2013-08-29 09:58:00,
2013-08-29 05:03:00,77.3,75.8,30.00,SE,142,0.0,0.0,95,0.00,CLR,,0.00,WeatherDisplay:10.37,2013-08-29 10:03:00,
2013-08-29 05:08:00,77.2,75.7,30.00,SE,142,0.0,0.0,95,0.00,CLR,,0.00,WeatherDisplay:10.37,2013-08-29 10:08:00,
2013-08-29 05:13:00,77.1,75.6,30.00,SE,142,0.0,0.0,95,0.00,CLR,,0.00,WeatherDisplay:10.37,2013-08-29 10:13:00,
2013-08-29 05:18:00,77.0,75.5,30.00,SE,142,0.0,0.0,95,0.00,CLR,,0.00,WeatherDisplay:10.37,2013-08-29 10:18:00,
2013-08-29 05:23:00,76.9,75.4,30.00,SE,142,0.0,0.0,95,0.00,CLR,,0.00,WeatherDisplay:10.37,2013-08-29 10:23:00,
2013-08-29 05:28:00,76.8,75.3,30.00,SE,142,0.0,0.0,95,0.00,CLR,,0.00,WeatherDisplay:10.37,2013-08-29 10:28:00,
2013-08-29 05:33:00,76.7,75.2,30.00,SE,142,0.0,0.0,95,0.00,CLR,,0.00,WeatherDisplay:10.37,2013-08-29 10:33:00,
2013-08-29 05:38:00,76.6,75.1,30.00,SE,142,0.0,0.0,95,0.00,CLR,,0.00,WeatherDisplay:10.37,2013-08-29 10:38:00,
2013-08-29 05:43:00,76.6,75.4,30.01,SE,142,0.0,0.0,96,0.00,CLR,,0.00,WeatherDisplay:10.37,2013-08-29 10:43:00,
2013-08-29 05:48:00,76.5,75.3,30.01,SE,142,0.0,0.0,96,0.00,CLR,,0.00,WeatherDisplay:10.37,2013-08-29 10:48:00,
2013-08-29 05:53:00,76.4,75.2,30.01,SE,142,0.0,0.0,96,0.00,CLR,,0.00,WeatherDisplay:10.37,2013-08-29 10:53:00,
2013-08-29 05:58:00,76.3,75.1,30.01,SE,142,0.0,0.0,96,0.00,CLR,,0.00,WeatherDisplay:10.37,2013-08-29 10:58:00,
2013-08-29 06:03:00,76.3,75.1,30.01,SE,142,0.0,0.0,96,0.00,CLR,,0.00,WeatherDisplay:10.37,2013-08-29 11:03:00,
2013-08-29 06:08:00,76.1,74.9,30.01,SE,142,0.0,0.0,96,0.00,CLR,,0.00,WeatherDisplay:10.37,2013-08-29 11:08:00,
2013-08-29 06:13:00,76.0,74.8,30.01,SE,142,0.0,0.0,96,0.00,CLR,,0.00,WeatherDisplay:10.37,2013-08-29 11:13:00,
2013-08-29 06:18:00,75.9,74.7,30.01,SE,142,0.0,0.0,96,0.00,CLR,,0.00,WeatherDisplay:10.37,2013-08-29 11:18:00,
2013-08-29 06:23:00,76.0,74.8,30.01,SE,142,0.0,0.0,96,0.00,CLR,,0.00,WeatherDisplay:10.37,2013-08-29 11:23:00,
2013-08-29 06:28:00,75.9,74.7,30.01,SE,142,0.0,0.0,96,0.00,CLR,,0.00,WeatherDisplay:10.37,2013-08-29 11:28:00,
2013-08-29 06:33:00,76.0,74.8,30.01,SE,142,0.0,0.0,96,0.00,CLR,,0.00,WeatherDisplay:10.37,2013-08-29 11:33:00,
2013-08-29 06:38:00,76.0,74.8,30.01,SE,142,0.0,0.0,96,0.00,CLR,,0.00,WeatherDisplay:10.37,2013-08-29 11:38:00,
2013-08-29 06:43:00,76.0,75.1,30.01,SE,142,0.0,0.0,97,0.00,CLR,,0.00,WeatherDisplay:10.37,2013-08-29 11:43:00,
2013-08-29 06:48:00,76.0,75.1,30.01,SE,142,0.0,0.0,97,0.00,CLR,,0.00,WeatherDisplay:10.37,2013-08-29 11:48:00,
2013-08-29 06:53:00,76.0,75.1,30.02,SE,142,0.0,0.0,97,0.00,CLR,,0.00,WeatherDisplay:10.37,2013-08-29 11:53:00,
2013-08-29 06:58:00,75.9,74.7,30.02,SE,142,0.0,0.0,96,0.00,CLR,,0.00,WeatherDisplay:10.37,2013-08-29 11:58:00,
2013-08-29 07:03:00,75.8,74.9,30.02,SE,142,0.0,0.0,97,0.00,CLR,,0.00,WeatherDisplay:10.37,2013-08-29 12:03:00,
2013-08-29 07:08:00,75.8,74.9,30.02,SE,142,0.0,0.0,97,0.00,CLR,,0.00,WeatherDisplay:10.37,2013-08-29 12:08:00,
2013-08-29 07:13:00,75.8,74.9,30.02,SE,142,0.0,0.0,97,0.00,CLR,,0.00,WeatherDisplay:10.37,2013-08-29 12:13:00,
2013-08-29 07:18:00,75.7,74.8,30.02,SE,142,0.0,0.0,97,0.00,CLR,,0.00,WeatherDisplay:10.37,2013-08-29 12:18:00,
2013-08-29 07:23:00,75.6,74.7,30.02,SE,142,0.0,0.0,97,0.00,CLR,,0.00,WeatherDisplay:10.37,2013-08-29 12:23:00,
2013-08-29 07:28:00,75.5,74.6,30.02,SE,142,0.0,0.0,97,0.00,CLR,,0.00,WeatherDisplay:10.37,2013-08-29 12:28:00,
2013-08-29 07:33:00,75.4,74.5,30.02,SE,142,0.0,0.0,97,0.00,CLR,,0.00,WeatherDisplay:10.37,2013-08-29 12:33:00,
2013-08-29 07:38:00,75.5,74.6,30.02,SE,142,0.0,0.0,97,0.00,CLR,,0.00,WeatherDisplay:10.37,2013-08-29 12:38:00,
2013-08-29 07:43:00,75.6,74.7,30.03,SE,143,0.0,0.2,97,0.00,CLR,,0.00,WeatherDisplay:10.37,2013-08-29 12:43:00,
2013-08-29 07:48:00,75.7,74.8,30.03,SE,143,0.0,0.0,97,0.00,CLR,,0.00,WeatherDisplay:10.37,2013-08-29 12:48:00,
2013-08-29 07:53:00,75.8,74.9,30.03,SE,142,0.0,0.0,97,0.00,CLR,,0.00,WeatherDisplay:10.37,2013-08-29 12:53:00,
2013-08-29 07:58:00,76.1,75.5,30.03,SE,143,0.0,0.0,98,0.00,CLR,,0.00,WeatherDisplay:10.37,2013-08-29 12:58:00,
2013-08-29 08:03:00,76.5,75.6,30.03,SE,142,0.0,0.0,97,0.00,CLR,,0.00,WeatherDisplay:10.37,2013-08-29 13:03:00,
2013-08-29 08:08:00,76.7,75.8,30.03,SE,143,0.0,0.0,97,0.00,CLR,,0.00,WeatherDisplay:10.37,2013-08-29 13:08:00,
2013-08-29 08:13:00,77.1,76.5,30.03,SE,142,0.0,0.0,98,0.00,CLR,,0.00,WeatherDisplay:10.37,2013-08-29 13:13:00,
2013-08-29 08:18:00,77.7,77.1,30.03,SE,143,0.0,0.0,98,0.00,CLR,,0.00,WeatherDisplay:10.37,2013-08-29 13:18:00,
2013-08-29 08:23:00,78.1,77.5,30.04,SE,143,0.0,0.0,98,0.00,CLR,,0.00,WeatherDisplay:10.37,2013-08-29 13:23:00,
2013-08-29 08:28:00,78.6,77.7,30.04,SE,142,1.1,1.1,97,0.00,CLR,,0.00,WeatherDisplay:10.37,2013-08-29 13:28:00,
2013-08-29 08:33:00,79.1,78.2,30.03,SE,142,1.1,0.0,97,0.00,CLR,,0.00,WeatherDisplay:10.37,2013-08-29 13:33:00,
2013-08-29 08:38:00,79.7,78.5,30.03,SE,142,0.0,0.0,96,0.00,CLR,,0.00,WeatherDisplay:10.37,2013-08-29 13:38:00,
2013-08-29 08:43:00,80.1,78.9,30.04,SE,142,0.0,0.0,96,0.00,CLR,,0.00,WeatherDisplay:10.37,2013-08-29 13:43:00,
2013-08-29 08:48:00,80.7,79.1,30.04,SE,142,0.0,0.0,95,0.00,CLR,,0.00,WeatherDisplay:10.37,2013-08-29 13:48:00,
2013-08-29 08:53:00,81.4,79.5,30.04,SE,142,1.1,1.1,94,0.00,CLR,,0.00,WeatherDisplay:10.37,2013-08-29 13:53:00,
2013-08-29 08:58:00,81.8,79.2,30.04,SE,142,0.0,0.0,92,0.00,CLR,,0.00,WeatherDisplay:10.37,2013-08-29 13:58:00,
2013-08-29 09:03:00,82.4,79.2,30.04,SE,142,0.0,0.0,90,0.00,CLR,,0.00,WeatherDisplay:10.37,2013-08-29 14:03:00,
2013-08-29 09:08:00,83.3,79.0,30.04,SE,143,1.1,0.0,87,0.00,CLR,,0.00,WeatherDisplay:10.37,2013-08-29 14:08:00,
2013-08-29 09:13:00,84.1,79.5,30.04,SE,143,1.1,1.1,86,0.00,CLR,,0.00,WeatherDisplay:10.37,2013-08-29 14:13:00,
2013-08-29 09:18:00,84.2,78.5,30.03,SE,142,2.3,2.3,83,0.00,CLR,,0.00,WeatherDisplay:10.37,2013-08-29 14:18:00,
2013-08-29 09:23:00,84.0,78.6,30.04,SE,142,0.0,0.0,84,0.00,CLR,,0.00,WeatherDisplay:10.37,2013-08-29 14:23:00,
2013-08-29 09:28:00,83.8,78.4,30.04,SE,142,1.1,0.0,84,0.00,CLR,,0.00,WeatherDisplay:10.37,2013-08-29 14:28:00,
2013-08-29 09:33:00,83.7,78.3,30.04,SE,142,0.0,0.0,84,0.00,CLR,,0.00,WeatherDisplay:10.37,2013-08-29 14:33:00,
2013-08-29 09:38:00,83.8,78.4,30.04,SE,142,0.0,0.0,84,0.00,CLR,,0.00,WeatherDisplay:10.37,2013-08-29 14:38:00,
2013-08-29 09:43:00,84.1,78.4,30.04,SE,142,1.1,0.0,83,0.00,CLR,,0.00,WeatherDisplay:10.37,2013-08-29 14:43:00,
2013-08-29 09:48:00,84.6,78.5,30.04,SE,142,1.1,1.1,82,0.00,CLR,,0.00,WeatherDisplay:10.37,2013-08-29 14:48:00,
2013-08-29 09:53:00,85.0,78.9,30.04,South,188,2.1,2.1,82,0.00,CLR,,0.00,WeatherDisplay:10.37,2013-08-29 14:53:00,
2013-08-29 09:58:00,85.7,78.8,30.04,South,180,3.5,3.5,80,0.00,CLR,,0.00,WeatherDisplay:10.37,2013-08-29 14:58:00,
2013-08-29 10:03:00,86.2,78.5,30.04,South,174,0.0,0.1,78,0.00,CLR,,0.00,WeatherDisplay:10.37,2013-08-29 15:03:00,
2013-08-29 10:08:00,86.5,78.4,30.04,South,174,1.1,0.0,77,0.00,CLR,,0.00,WeatherDisplay:10.37,2013-08-29 15:08:00,
2013-08-29 10:13:00,87.3,79.6,30.04,East,91,3.5,3.5,78,0.00,CLR,,0.00,WeatherDisplay:10.37,2013-08-29 15:13:00,
2013-08-29 10:18:00,87.2,79.1,30.04,East,79,2.3,2.3,77,0.00,CLR,,0.00,WeatherDisplay:10.37,2013-08-29 15:18:00,
2013-08-29 10:23:00,87.3,79.2,30.04,NNE,15,3.5,3.5,77,0.00,CLR,,0.00,WeatherDisplay:10.37,2013-08-29 15:23:00,
2013-08-29 10:28:00,87.5,79.4,30.04,NNE,15,2.3,2.3,77,0.00,CLR,,0.00,WeatherDisplay:10.37,2013-08-29 15:28:00,
2013-08-29 10:33:00,88.0,79.1,30.04,ESE,114,3.5,3.5,75,0.00,CLR,,0.00,WeatherDisplay:10.37,2013-08-29 15:33:00,
2013-08-29 10:38:00,88.1,78.3,30.04,East,84,2.3,2.3,73,0.00,CLR,,0.00,WeatherDisplay:10.37,2013-08-29 15:38:00,
2013-08-29 10:43:00,88.3,78.5,30.04,ENE,70,4.6,4.6,73,0.00,CLR,,0.00,WeatherDisplay:10.37,2013-08-29 15:43:00,
2013-08-29 10:48:00,88.6,78.8,30.03,ESE,113,3.5,3.5,73,0.00,CLR,,0.00,WeatherDisplay:10.37,2013-08-29 15:48:00,
2013-08-29 10:53:00,88.6,78.4,30.03,East,91,3.5,3.5,72,0.00,CLR,,0.00,WeatherDisplay:10.37,2013-08-29 15:53:00,
2013-08-29 10:58:00,88.7,78.9,30.04,ESE,110,2.3,2.3,73,0.00,CLR,,0.00,WeatherDisplay:10.37,2013-08-29 15:58:00,
2013-08-29 11:03:00,89.0,78.4,30.04,ESE,122,5.8,5.8,71,0.00,CLR,,0.00,WeatherDisplay:10.37,2013-08-29 16:03:00,
2013-08-29 11:08:00,89.1,78.5,30.04,SE,146,1.1,1.1,71,0.00,CLR,,0.00,WeatherDisplay:10.37,2013-08-29 16:08:00,
2013-08-29 11:13:00,89.5,78.4,30.04,East,95,3.5,3.5,70,0.00,CLR,,0.00,WeatherDisplay:10.37,2013-08-29 16:13:00,
2013-08-29 11:18:00,89.5,78.4,30.04,SE,140,2.3,2.3,70,0.00,CLR,,0.00,WeatherDisplay:10.37,2013-08-29 16:18:00,
2013-08-29 11:23:00,89.8,78.7,30.04,East,80,3.5,3.5,70,0.00,CLR,,0.00,WeatherDisplay:10.37,2013-08-29 16:23:00,
2013-08-29 11:28:00,89.5,78.0,30.04,ENE,66,4.6,4.6,69,0.00,CLR,,0.00,WeatherDisplay:10.37,2013-08-29 16:28:00,
2013-08-29 11:33:00,89.2,78.1,30.04,ESE,107,3.5,3.5,70,0.00,CLR,,0.00,WeatherDisplay:10.37,2013-08-29 16:33:00,
2013-08-29 11:38:00,89.7,78.6,30.04,ENE,70,2.3,2.3,70,0.00,CLR,,0.00,WeatherDisplay:10.37,2013-08-29 16:38:00,
2013-08-29 11:43:00,90.0,77.6,30.03,South,176,3.5,3.5,67,0.00,CLR,,0.00,WeatherDisplay:10.37,2013-08-29 16:43:00,
2013-08-29 11:48:00,90.0,78.0,30.03,SSE,148,1.1,1.1,68,0.00,CLR,,0.00,WeatherDisplay:10.37,2013-08-29 16:48:00,
2013-08-29 11:53:00,90.5,77.1,30.04,ESE,112,2.3,0.0,65,0.00,CLR,,0.00,WeatherDisplay:10.37,2013-08-29 16:53:00,
2013-08-29 11:58:00,90.3,76.5,30.03,WSW,240,2.3,2.3,64,0.00,CLR,,0.00,WeatherDisplay:10.37,2013-08-29 16:58:00,
2013-08-29 12:03:00,90.8,77.4,30.03,WSW,240,1.1,1.1,65,0.00,CLR,,0.00,WeatherDisplay:10.37,2013-08-29 17:03:00,
2013-08-29 12:08:00,91.1,76.3,30.03,WNW,291,3.5,3.5,62,0.00,CLR,,0.00,WeatherDisplay:10.37,2013-08-29 17:08:00,
2013-08-29 12:13:00,91.2,76.4,30.03,NE,49,3.5,3.5,62,0.00,CLR,,0.00,WeatherDisplay:10.37,2013-08-29 17:13:00,
2013-08-29 12:18:00,91.2,77.8,30.03,NE,56,4.6,4.6,65,0.00,CLR,,0.00,WeatherDisplay:10.37,2013-08-29 17:18:00,
2013-08-29 12:23:00,91.1,77.2,30.03,SSE,150,2.3,2.3,64,0.00,CLR,,0.00,WeatherDisplay:10.37,2013-08-29 17:23:00,
2013-08-29 12:28:00,91.6,79.1,30.03,SSW,198,1.1,1.1,67,0.00,CLR,,0.00,WeatherDisplay:10.37,2013-08-29 17:28:00,
2013-08-29 12:33:00,92.1,77.7,30.03,East,90,2.3,2.3,63,0.00,CLR,,0.00,WeatherDisplay:10.37,2013-08-29 17:33:00,
2013-08-29 12:38:00,92.4,78.4,30.03,NE,53,5.8,5.8,64,0.00,CLR,,0.00,WeatherDisplay:10.37,2013-08-29 17:38:00,
2013-08-29 12:43:00,92.1,77.7,30.02,NE,56,4.6,4.6,63,0.00,CLR,,0.00,WeatherDisplay:10.37,2013-08-29 17:43:00,
2013-08-29 12:48:00,91.5,77.6,30.02,ESE,102,4.6,4.6,64,0.00,CLR,,0.00,WeatherDisplay:10.37,2013-08-29 17:48:00,
2013-08-29 12:53:00,90.9,77.5,30.02,East,80,5.8,5.8,65,0.00,CLR,,0.00,WeatherDisplay:10.37,2013-08-29 17:53:00,
2013-08-29 12:58:00,90.6,77.7,30.02,ESE,123,4.6,4.6,66,0.00,CLR,,0.00,WeatherDisplay:10.37,2013-08-29 17:58:00,
2013-08-29 13:03:00,90.8,77.4,30.02,East,97,4.6,4.6,65,0.00,CLR,,0.00,WeatherDisplay:10.37,2013-08-29 18:03:00,
2013-08-29 13:08:00,90.7,77.3,30.02,ESE,105,5.8,5.8,65,0.00,CLR,,0.00,WeatherDisplay:10.37,2013-08-29 18:08:00,
2013-08-29 13:13:00,90.7,75.9,30.02,ENE,61,6.9,6.9,62,0.00,CLR,,0.00,WeatherDisplay:10.37,2013-08-29 18:13:00,
2013-08-29 13:18:00,91.1,77.7,30.02,East,90,7.4,7.4,65,0.00,CLR,,0.00,WeatherDisplay:10.37,2013-08-29 18:18:00,
2013-08-29 13:23:00,90.9,77.0,30.02,SE,146,11.5,11.5,64,0.00,CLR,,0.00,WeatherDisplay:10.37,2013-08-29 18:23:00,
2013-08-29 13:28:00,90.1,76.3,30.02,ESE,122,9.2,9.2,64,0.00,CLR,,0.00,WeatherDisplay:10.37,2013-08-29 18:28:00,
2013-08-29 13:33:00,90.2,77.8,30.01,SE,146,6.9,6.9,67,0.00,CLR,,0.00,WeatherDisplay:10.37,2013-08-29 18:33:00,
2013-08-29 13:38:00,90.2,77.3,30.01,East,92,6.9,6.9,66,0.00,CLR,,0.00,WeatherDisplay:10.37,2013-08-29 18:38:00,
2013-08-29 13:43:00,90.4,77.5,30.00,South,170,5.8,5.8,66,0.00,CLR,,0.00,WeatherDisplay:10.37,2013-08-29 18:43:00,
2013-08-29 13:48:00,90.0,77.1,30.00,SE,126,6.9,6.9,66,0.00,CLR,,0.00,WeatherDisplay:10.37,2013-08-29 18:48:00,
2013-08-29 13:53:00,90.0,77.1,30.00,East,84,4.6,4.6,66,0.00,CLR,,0.00,WeatherDisplay:10.37,2013-08-29 18:53:00,
2013-08-29 13:58:00,90.1,76.7,30.00,SE,127,5.8,5.8,65,0.00,CLR,,0.00,WeatherDisplay:10.37,2013-08-29 18:58:00,
2013-08-29 14:03:00,90.2,77.8,30.00,ESE,116,5.8,5.8,67,0.00,CLR,,0.00,WeatherDisplay:10.37,2013-08-29 19:03:00,
2013-08-29 14:08:00,90.3,77.4,30.00,SE,141,5.8,5.8,66,0.00,CLR,,0.00,WeatherDisplay:10.37,2013-08-29 19:08:00,
2013-08-29 14:13:00,90.2,76.4,30.00,ENE,62,5.8,5.8,64,0.00,CLR,,0.00,WeatherDisplay:10.37,2013-08-29 19:13:00,
2013-08-29 14:18:00,90.3,76.5,30.00,SE,127,5.8,5.8,64,0.00,CLR,,0.00,WeatherDisplay:10.37,2013-08-29 19:18:00,
2013-08-29 14:23:00,90.6,77.2,30.00,ESE,104,2.3,2.8,65,0.00,CLR,,0.00,WeatherDisplay:10.37,2013-08-29 19:23:00,
2013-08-29 14:28:00,90.7,76.8,30.00,SE,142,3.5,3.5,64,0.00,CLR,,0.00,WeatherDisplay:10.37,2013-08-29 19:28:00,
2013-08-29 14:33:00,90.8,76.5,30.00,ENE,63,6.9,6.9,63,0.00,CLR,,0.00,WeatherDisplay:10.37,2013-08-29 19:33:00,
2013-08-29 14:38:00,90.6,77.2,29.99,SSE,150,6.9,6.9,65,0.00,CLR,,0.00,WeatherDisplay:10.37,2013-08-29 19:38:00,
2013-08-29 14:43:00,90.2,75.9,29.99,SE,132,6.9,6.9,63,0.00,CLR,,0.00,WeatherDisplay:10.37,2013-08-29 19:43:00,
2013-08-29 14:48:00,89.9,75.6,29.99,SE,135,5.8,5.8,63,0.00,CLR,,0.00,WeatherDisplay:10.37,2013-08-29 19:48:00,
2013-08-29 14:53:00,90.4,76.1,29.99,SE,142,9.2,9.2,63,0.00,CLR,,0.00,WeatherDisplay:10.37,2013-08-29 19:53:00,
2013-08-29 14:58:00,90.3,76.9,29.99,ESE,115,9.4,9.4,65,0.00,CLR,,0.00,WeatherDisplay:10.37,2013-08-29 19:58:00,
2013-08-29 15:03:00,90.0,75.7,29.99,ESE,109,6.9,6.9,63,0.00,CLR,,0.00,WeatherDisplay:10.37,2013-08-29 20:03:00,
2013-08-29 15:08:00,90.2,76.4,29.99,SSE,164,9.2,9.2,64,0.00,CLR,,0.00,WeatherDisplay:10.37,2013-08-29 20:08:00,
2013-08-29 15:13:00,90.0,75.7,29.99,East,79,11.5,11.5,63,0.00,CLR,,0.00,WeatherDisplay:10.37,2013-08-29 20:13:00,
2013-08-29 15:18:00,89.8,77.4,29.98,ESE,117,5.8,5.8,67,0.00,CLR,,0.00,WeatherDisplay:10.37,2013-08-29 20:18:00,
2013-08-29 15:23:00,89.7,75.4,29.97,ENE,70,6.9,6.9,63,0.00,CLR,,0.00,WeatherDisplay:10.37,2013-08-29 20:23:00,
2013-08-29 15:28:00,90.0,76.6,29.97,ESE,103,6.9,6.9,65,0.00,CLR,,0.00,WeatherDisplay:10.37,2013-08-29 20:28:00,
2013-08-29 15:33:00,90.0,76.6,29.97,SE,134,5.8,5.8,65,0.00,CLR,,0.00,WeatherDisplay:10.37,2013-08-29 20:33:00,
2013-08-29 15:38:00,90.0,76.6,29.97,East,82,5.8,5.8,65,0.00,CLR,,0.00,WeatherDisplay:10.37,2013-08-29 20:38:00,
2013-08-29 15:43:00,90.2,76.8,29.97,SSE,154,5.8,5.8,65,0.00,CLR,,0.00,WeatherDisplay:10.37,2013-08-29 20:43:00,
2013-08-29 15:48:00,90.0,76.2,29.97,SE,131,8.1,8.1,64,0.00,CLR,,0.00,WeatherDisplay:10.37,2013-08-29 20:48:00,
2013-08-29 15:53:00,89.8,76.5,29.97,East,89,5.8,5.8,65,0.00,CLR,,0.00,WeatherDisplay:10.37,2013-08-29 20:53:00,
2013-08-29 15:58:00,89.6,75.8,29.96,SE,136,6.9,6.9,64,0.00,CLR,,0.00,WeatherDisplay:10.37,2013-08-29 20:58:00,
2013-08-29 16:03:00,89.5,75.7,29.96,ENE,71,10.4,10.4,64,0.00,CLR,,0.00,WeatherDisplay:10.37,2013-08-29 21:03:00,
2013-08-29 16:08:00,89.5,76.2,29.96,ESE,115,11.5,11.5,65,0.00,CLR,,0.00,WeatherDisplay:10.37,2013-08-29 21:08:00,
2013-08-29 16:13:00,89.4,74.7,29.96,ESE,111,10.4,10.4,62,0.00,CLR,,0.00,WeatherDisplay:10.37,2013-08-29 21:13:00,
2013-08-29 16:18:00,89.1,75.8,29.96,SE,135,12.7,12.7,65,0.00,CLR,,0.00,WeatherDisplay:10.37,2013-08-29 21:18:00,
2013-08-29 16:23:00,88.7,75.9,29.96,ESE,112,9.2,9.2,66,0.00,CLR,,0.00,WeatherDisplay:10.37,2013-08-29 21:23:00,
2013-08-29 16:28:00,88.6,75.8,29.95,SE,134,11.5,11.5,66,0.00,CLR,,0.00,WeatherDisplay:10.37,2013-08-29 21:28:00,
2013-08-29 16:33:00,88.5,76.1,29.95,East,96,11.5,11.5,67,0.00,CLR,,0.00,WeatherDisplay:10.37,2013-08-29 21:33:00,
2013-08-29 16:38:00,88.7,76.8,29.95,ESE,120,6.9,6.9,68,0.00,CLR,,0.00,WeatherDisplay:10.37,2013-08-29 21:38:00,
2013-08-29 16:43:00,88.6,75.3,29.95,SSE,162,12.7,12.7,65,0.00,CLR,,0.00,WeatherDisplay:10.37,2013-08-29 21:43:00,
2013-08-29 16:48:00,88.4,76.0,29.95,SSE,149,11.5,11.5,67,0.00,CLR,,0.00,WeatherDisplay:10.37,2013-08-29 21:48:00,
2013-08-29 16:53:00,88.1,76.6,29.95,SE,136,12.7,12.7,69,0.00,CLR,,0.00,WeatherDisplay:10.37,2013-08-29 21:53:00,
2013-08-29 16:58:00,87.9,76.5,29.94,SE,132,10.4,10.4,69,0.00,CLR,,0.00,WeatherDisplay:10.37,2013-08-29 21:58:00,
2013-08-29 17:03:00,87.9,77.3,29.94,ESE,120,10.4,10.4,71,0.00,CLR,,0.00,WeatherDisplay:10.37,2013-08-29 22:03:00,
2013-08-29 17:08:00,87.8,76.8,29.95,SE,130,15.0,15.0,70,0.00,CLR,,0.00,WeatherDisplay:10.37,2013-08-29 22:08:00,
2013-08-29 17:13:00,87.6,77.5,29.95,SE,128,6.9,6.9,72,0.00,CLR,,0.00,WeatherDisplay:10.37,2013-08-29 22:13:00,
2013-08-29 17:18:00,87.5,76.5,29.94,East,99,12.7,12.7,70,0.00,CLR,,0.00,WeatherDisplay:10.37,2013-08-29 22:18:00,
2013-08-29 17:23:00,87.3,77.2,29.94,SE,125,9.2,9.2,72,0.00,CLR,,0.00,WeatherDisplay:10.37,2013-08-29 22:23:00,
2013-08-29 17:28:00,87.2,77.1,29.94,SE,139,6.9,6.9,72,0.00,CLR,,0.00,WeatherDisplay:10.37,2013-08-29 22:28:00,
2013-08-29 17:33:00,87.1,77.0,29.94,East,90,6.9,6.9,72,0.00,CLR,,0.00,WeatherDisplay:10.37,2013-08-29 22:33:00,
2013-08-29 17:38:00,87.2,77.1,29.95,East,94,11.5,11.5,72,0.00,CLR,,0.00,WeatherDisplay:10.37,2013-08-29 22:38:00,
2013-08-29 17:43:00,87.1,77.4,29.94,ESE,115,9.2,9.2,73,0.00,CLR,,0.00,WeatherDisplay:10.37,2013-08-29 22:43:00,
2013-08-29 17:48:00,87.0,76.5,29.94,SE,133,10.4,10.4,71,0.00,CLR,,0.00,WeatherDisplay:10.37,2013-08-29 22:48:00,
2013-08-29 17:53:00,86.8,77.1,29.95,ESE,108,6.9,6.9,73,0.00,CLR,,0.00,WeatherDisplay:10.37,2013-08-29 22:53:00,
2013-08-29 17:58:00,86.7,77.0,29.95,South,169,9.4,9.4,73,0.00,CLR,,0.00,WeatherDisplay:10.37,2013-08-29 22:58:00,
2013-08-29 18:03:00,86.5,77.2,29.94,SE,145,12.7,12.7,74,0.00,CLR,,0.00,WeatherDisplay:10.37,2013-08-29 23:03:00,
2013-08-29 18:08:00,86.5,77.6,29.95,SSE,153,8.1,8.1,75,0.00,CLR,,0.00,WeatherDisplay:10.37,2013-08-29 23:08:00,
2013-08-29 18:13:00,86.4,77.1,29.95,SE,134,6.9,6.9,74,0.00,CLR,,0.00,WeatherDisplay:10.37,2013-08-29 23:13:00,
2013-08-29 18:18:00,86.1,76.8,29.95,SE,138,10.4,10.4,74,0.00,CLR,,0.00,WeatherDisplay:10.37,2013-08-29 23:18:00,
2013-08-29 18:23:00,85.9,77.1,29.95,SE,127,10.4,10.4,75,0.00,CLR,,0.00,WeatherDisplay:10.37,2013-08-29 23:23:00,
2013-08-29 18:28:00,85.7,77.3,29.95,ESE,117,9.2,9.2,76,0.00,CLR,,0.00,WeatherDisplay:10.37,2013-08-29 23:28:00,
2013-08-29 18:33:00,85.6,77.6,29.94,SE,125,10.4,10.4,77,0.00,CLR,,0.00,WeatherDisplay:10.37,2013-08-29 23:33:00,
2013-08-29 18:38:00,85.5,77.5,29.94,SSE,161,12.7,12.7,77,0.00,CLR,,0.00,WeatherDisplay:10.37,2013-08-29 23:38:00,
2013-08-29 18:43:00,85.4,77.8,29.94,ESE,108,9.2,9.2,78,0.00,CLR,,0.00,WeatherDisplay:10.37,2013-08-29 23:43:00,
2013-08-29 18:48:00,85.2,77.2,29.94,SE,125,5.8,5.8,77,0.00,CLR,,0.00,WeatherDisplay:10.37,2013-08-29 23:48:00,
2013-08-29 18:53:00,85.0,77.4,29.94,SE,124,6.9,6.9,78,0.00,CLR,,0.00,WeatherDisplay:10.37,2013-08-29 23:53:00,
2013-08-29 18:58:00,84.8,77.2,29.94,ESE,110,6.9,6.9,78,0.00,CLR,,0.00,WeatherDisplay:10.37,2013-08-29 23:58:00,
2013-08-29 19:03:00,84.8,77.6,29.94,SE,139,7.4,7.4,79,0.00,CLR,,0.00,WeatherDisplay:10.37,2013-08-30 00:03:00,
2013-08-29 19:08:00,84.6,77.4,29.94,South,169,5.8,5.8,79,0.00,CLR,,0.00,WeatherDisplay:10.37,2013-08-30 00:08:00,
2013-08-29 19:13:00,84.5,77.3,29.94,ESE,117,5.8,6.6,79,0.00,CLR,,0.00,WeatherDisplay:10.37,2013-08-30 00:13:00,
2013-08-29 19:18:00,84.2,77.0,29.94,SE,134,9.2,9.2,79,0.00,CLR,,0.00,WeatherDisplay:10.37,2013-08-30 00:18:00,
2013-08-29 19:23:00,84.1,76.9,29.95,SSE,150,4.6,4.6,79,0.00,CLR,,0.00,WeatherDisplay:10.37,2013-08-30 00:23:00,
2013-08-29 19:28:00,84.0,77.2,29.95,SE,130,9.2,9.2,80,0.00,CLR,,0.00,WeatherDisplay:10.37,2013-08-30 00:28:00,
2013-08-29 19:33:00,83.7,76.9,29.95,SE,131,10.4,10.4,80,0.00,CLR,,0.00,WeatherDisplay:10.37,2013-08-30 00:33:00,
2013-08-29 19:38:00,83.6,77.1,29.95,SE,136,6.9,6.9,81,0.00,CLR,,0.00,WeatherDisplay:10.37,2013-08-30 00:38:00,
2013-08-29 19:43:00,83.4,77.0,29.95,SE,127,6.9,6.9,81,0.00,CLR,,0.00,WeatherDisplay:10.37,2013-08-30 00:43:00,
2013-08-29 19:48:00,83.2,77.1,29.95,SE,146,5.8,5.8,82,0.00,CLR,,0.00,WeatherDisplay:10.37,2013-08-30 00:48:00,
2013-08-29 19:53:00,83.0,76.9,29.95,SSE,148,5.8,5.8,82,0.00,CLR,,0.00,WeatherDisplay:10.37,2013-08-30 00:53:00,
2013-08-29 19:58:00,82.9,76.8,29.95,SE,134,5.8,5.8,82,0.00,CLR,,0.00,WeatherDisplay:10.37,2013-08-30 00:58:00,
2013-08-29 20:04:00,82.7,76.6,29.95,ESE,110,5.8,5.8,82,0.00,CLR,,0.00,WeatherDisplay:10.37,2013-08-30 01:04:00,
2013-08-29 20:09:00,82.6,76.5,29.95,SE,127,5.8,5.8,82,0.00,CLR,,0.00,WeatherDisplay:10.37,2013-08-30 01:09:00,
2013-08-29 20:14:00,82.5,76.4,29.95,SE,132,5.8,5.8,82,0.00,CLR,,0.00,WeatherDisplay:10.37,2013-08-30 01:14:00,
2013-08-29 20:19:00,82.4,76.3,29.95,SE,141,4.6,4.6,82,0.00,CLR,,0.00,WeatherDisplay:10.37,2013-08-30 01:19:00,
2013-08-29 20:24:00,82.3,76.3,29.96,SE,134,5.8,5.8,82,0.00,CLR,,0.00,WeatherDisplay:10.37,2013-08-30 01:24:00,
2013-08-29 20:29:00,82.3,76.3,29.96,SE,137,4.6,4.6,82,0.00,CLR,,0.00,WeatherDisplay:10.37,2013-08-30 01:29:00,
2013-08-29 20:34:00,82.2,76.2,29.96,SE,139,5.8,5.8,82,0.00,CLR,,0.00,WeatherDisplay:10.37,2013-08-30 01:34:00,
2013-08-29 20:39:00,82.1,76.1,29.96,SSE,155,2.3,2.3,82,0.00,CLR,,0.00,WeatherDisplay:10.37,2013-08-30 01:39:00,
2013-08-29 20:44:00,82.0,76.0,29.96,SE,141,2.3,2.3,82,0.00,CLR,,0.00,WeatherDisplay:10.37,2013-08-30 01:44:00,
2013-08-29 20:49:00,81.9,75.9,29.96,SE,132,2.3,2.3,82,0.00,CLR,,0.00,WeatherDisplay:10.37,2013-08-30 01:49:00,
2013-08-29 20:54:00,81.9,75.9,29.96,SE,141,3.5,3.5,82,0.00,CLR,,0.00,WeatherDisplay:10.37,2013-08-30 01:54:00,
2013-08-29 20:59:00,81.9,75.9,29.96,SSE,165,3.5,3.5,82,0.00,CLR,,0.00,WeatherDisplay:10.37,2013-08-30 01:59:00,
2013-08-29 21:04:00,81.9,75.9,29.96,SE,133,2.3,2.3,82,0.00,CLR,,0.00,WeatherDisplay:10.37,2013-08-30 02:04:00,
2013-08-29 21:09:00,81.8,75.8,29.96,SSE,150,5.8,5.8,82,0.00,CLR,,0.00,WeatherDisplay:10.37,2013-08-30 02:09:00,
2013-08-29 21:14:00,81.7,75.7,29.96,SE,146,2.3,2.3,82,0.00,CLR,,0.00,WeatherDisplay:10.37,2013-08-30 02:14:00,
2013-08-29 21:19:00,81.6,75.6,29.96,SSE,147,3.5,3.5,82,0.00,CLR,,0.00,WeatherDisplay:10.37,2013-08-30 02:19:00,
2013-08-29 21:24:00,81.5,75.5,29.96,SSE,147,3.5,3.5,82,0.00,CLR,,0.00,WeatherDisplay:10.37,2013-08-30 02:24:00,
2013-08-29 21:29:00,81.4,75.4,29.96,SSE,147,1.1,1.1,82,0.00,CLR,,0.00,WeatherDisplay:10.37,2013-08-30 02:29:00,
2013-08-29 21:34:00,81.4,75.7,29.96,SSE,160,4.6,4.6,83,0.00,CLR,,0.00,WeatherDisplay:10.37,2013-08-30 02:34:00,
2013-08-29 21:39:00,81.4,75.7,29.96,SSE,161,3.5,3.5,83,0.00,CLR,,0.00,WeatherDisplay:10.37,2013-08-30 02:39:00,
2013-08-29 21:44:00,81.3,75.6,29.97,SSE,160,2.3,2.3,83,0.00,CLR,,0.00,WeatherDisplay:10.37,2013-08-30 02:44:00,
2013-08-29 21:49:00,81.3,76.0,29.97,SSE,160,2.3,2.3,84,0.00,CLR,,0.00,WeatherDisplay:10.37,2013-08-30 02:49:00,
2013-08-29 21:54:00,81.3,76.0,29.97,SSE,160,1.1,1.1,84,0.00,CLR,,0.00,WeatherDisplay:10.37,2013-08-30 02:54:00,
2013-08-29 21:59:00,81.2,75.9,29.97,SSE,160,1.1,1.1,84,0.00,CLR,,0.00,WeatherDisplay:10.37,2013-08-30 02:59:00,
2013-08-29 22:04:00,81.1,75.8,29.97,SSE,160,2.3,2.3,84,0.00,CLR,,0.00,WeatherDisplay:10.37,2013-08-30 03:04:00,
2013-08-29 22:09:00,81.1,75.8,29.97,SSE,160,1.1,1.1,84,0.00,CLR,,0.00,WeatherDisplay:10.37,2013-08-30 03:09:00,
2013-08-29 22:14:00,81.0,76.1,29.97,SSE,160,1.1,1.1,85,0.00,CLR,,0.00,WeatherDisplay:10.37,2013-08-30 03:14:00,
2013-08-29 22:19:00,80.9,76.0,29.97,SSE,155,2.3,2.3,85,0.00,CLR,,0.00,WeatherDisplay:10.37,2013-08-30 03:19:00,
2013-08-29 22:24:00,80.9,76.0,29.97,SE,134,3.5,3.5,85,0.00,CLR,,0.00,WeatherDisplay:10.37,2013-08-30 03:24:00,
2013-08-29 22:29:00,80.8,75.9,29.97,SE,136,2.3,2.3,85,0.00,CLR,,0.00,WeatherDisplay:10.37,2013-08-30 03:29:00,
2013-08-29 22:34:00,80.8,75.9,29.97,SE,141,4.6,4.6,85,0.00,CLR,,0.00,WeatherDisplay:10.37,2013-08-30 03:34:00,
2013-08-29 22:39:00,80.9,76.0,29.96,South,185,1.1,1.1,85,0.00,CLR,,0.00,WeatherDisplay:10.37,2013-08-30 03:39:00,
2013-08-29 22:44:00,80.9,76.0,29.97,SSW,195,2.3,2.3,85,0.00,CLR,,0.00,WeatherDisplay:10.37,2013-08-30 03:44:00,
2013-08-29 22:49:00,80.8,76.2,29.97,SSE,160,3.5,3.5,86,0.00,CLR,,0.00,WeatherDisplay:10.37,2013-08-30 03:49:00,
2013-08-29 22:54:00,80.8,76.2,29.97,SE,146,2.3,2.3,86,0.00,CLR,,0.00,WeatherDisplay:10.37,2013-08-30 03:54:00,
2013-08-29 22:59:00,80.8,76.2,29.96,South,169,3.5,3.5,86,0.00,CLR,,0.00,WeatherDisplay:10.37,2013-08-30 03:59:00,
2013-08-29 23:01:00,80.8,76.2,29.96,South,181,5.8,5.8,86,0.00,CLR,,0.00,WeatherDisplay:10.37,2013-08-30 04:01:00,
2013-08-29 23:02:00,80.8,76.2,29.96,South,181,3.5,3.5,86,0.00,CLR,,0.00,WeatherDisplay:10.37,2013-08-30 04:02:00,
2013-08-29 23:07:00,80.8,76.2,29.96,South,174,3.5,3.5,86,0.00,CLR,,0.00,WeatherDisplay:10.37,2013-08-30 04:07:00,
2013-08-29 23:12:00,80.8,76.2,29.97,SSE,155,5.8,5.8,86,0.00,CLR,,0.00,WeatherDisplay:10.37,2013-08-30 04:12:00,
2013-08-29 23:17:00,80.8,76.2,29.96,SSE,161,3.5,3.5,86,0.00,CLR,,0.00,WeatherDisplay:10.37,2013-08-30 04:17:00,
2013-08-29 23:22:00,80.9,76.3,29.97,SSE,150,4.6,4.6,86,0.00,CLR,,0.00,WeatherDisplay:10.37,2013-08-30 04:22:00,
2013-08-29 23:27:00,80.9,76.3,29.96,SSE,165,3.5,3.5,86,0.00,CLR,,0.00,WeatherDisplay:10.37,2013-08-30 04:27:00,
2013-08-29 23:32:00,80.8,76.2,29.96,South,171,2.3,2.3,86,0.00,CLR,,0.00,WeatherDisplay:10.37,2013-08-30 04:32:00,
2013-08-29 23:37:00,80.8,76.2,29.96,South,184,2.3,2.3,86,0.00,CLR,,0.00,WeatherDisplay:10.37,2013-08-30 04:37:00,
2013-08-29 23:42:00,80.7,76.1,29.96,South,186,2.3,2.3,86,0.00,CLR,,0.00,WeatherDisplay:10.37,2013-08-30 04:42:00,
2013-08-29 23:47:00,80.7,75.8,29.96,South,170,2.3,2.3,85,0.00,CLR,,0.00,WeatherDisplay:10.37,2013-08-30 04:47:00,
2013-08-29 23:52:00,80.6,75.7,29.96,South,183,2.3,2.3,85,0.00,CLR,,0.00,WeatherDisplay:10.37,2013-08-30 04:52:00,
2013-08-29 23:57:00,80.5,75.6,29.96,South,184,3.5,3.5,85,0.00,CLR,,0.00,WeatherDisplay:10.37,2013-08-30 04:57:00,